Location: Ar Ranvel
(48.3000°N, 4.8833°W)
Time: 22:28:39
(UTC+00:00)

Meteor 2-10 Rocket - Pass Details

Date: 26 October 2021
Orbit: 733 x 885 km, 81.2° (Epoch: 30 November)

Event Time Altitude Azimuth Distance (km) Brightness Sun altitude
Rises 05:15:07 0° 350° (N) 3,204 6.6 -17.3°
Reaches altitude 10° 05:17:30 10° 353° (N) 2,263 5.9 -16.9°
Maximum altitude 05:22:32 66° 76° (ENE) 802 3.8 -16.1°
Drops below altitude 10° 05:27:29 10° 159° (SSE) 2,233 6.2 -15.3°
Sets 05:29:49 0° 162° (SSE) 3,157 7.0 -14.9°
